GLENN Weather Reports


time (UTC)temp
F
wind
direction
speed
knots
gust
knots
rain 1hr
in
rain 24hr
in
rain mn
in
humidity
%
barometer
mb
20260906163005 61 201 2.6 7.0 0.00 0.00 0.00 62 1019.3
20260906161505 61 168 2.6 6.1 0.00 0.00 0.00 62 1019.3
20260906160006 59 202 2.6 6.1 0.00 0.00 0.00 65 1019.5
20260906154508 59 216 1.7 8.7 0.00 0.00 0.00 66 1019.6
20260906153018 57 163 3.5 6.1 0.00 0.00 0.00 68 1020.0
20260906151504 56 149 2.6 6.1 0.00 0.00 0.00 68 1020.2
20260906150008 57 200 2.6 5.2 0.00 0.00 0.00 69 1020.3
20260906144515 56 162 2.6 3.5 0.00 0.00 0.00 71 1020.3
20260906143014 55 159 2.6 6.1 0.00 0.00 0.00 71 1020.4
20260906141520 54 168 3.5 7.0 0.00 0.00 0.00 74 1020.4
20260906140005 52 138 5.2 7.8 0.00 0.00 0.00 78 1020.5
20260906134507 52 138 5.2 8.7 0.00 0.00 0.00 79 1020.4
20260906133022 51 140 6.1 8.7 0.00 0.00 0.00 81 1020.4
20260906131517 50 141 8.7 10.4 0.00 0.00 0.00 82 1020.4
20260906130033 50 159 7.8 12.2 0.00 0.00 0.00 83 1020.4
20260906124503 49 162 6.1 8.7 0.00 0.00 0.00 84 1020.2
20260906123011 49 166 3.5 5.2 0.00 0.00 0.00 83 1019.9
20260906121514 50 121 2.6 3.5 0.00 0.00 0.00 82 1019.9
20260906120017 50 119 0.9 1.7 0.00 0.00 0.00 80 1019.7
20260906114528 50 33 0.0 0.0 0.00 0.00 0.00 80 1019.2
20260906113011 50 18 0.0 1.7 0.00 0.00 0.00 79 1018.8
20260906111510 51 62 0.9 2.6 0.00 0.00 0.00 76 1018.6
20260906110016 51 81 0.9 2.6 0.00 0.00 0.00 76 1018.1
20260906104537 51 80 0.9 2.6 0.00 0.00 0.00 74 1017.4
20260906103041 51 40 0.9 2.6 0.00 0.00 0.00 75 1017.4
20260906101509 52 98 2.6 3.5 0.00 0.00 0.00 72 1017.2
20260906100024 55 234 1.7 2.6 0.00 0.00 0.00 64 1016.8
20260906094519 54 107 1.7 3.5 0.00 0.00 0.00 66 1016.8
20260906093035 56 214 0.0 1.7 0.00 0.00 0.00 63 1016.9
20260906091535 55 109 0.0 2.6 0.00 0.00 0.00 64 1017.3
20260906090013 55 271 0.9 3.5 0.00 0.00 0.00 64 1017.4
20260906084517 56 91 0.9 3.5 0.00 0.00 0.00 63 1017.5
20260906083023 57 311 0.0 1.7 0.00 0.00 0.00 60 1017.7
20260906081525 57 287 0.0 2.6 0.00 0.00 0.00 60 1017.6
20260906080031 56 84 1.7 3.5 0.00 0.00 0.00 64 1017.9
20260906074513 56 273 0.9 3.5 0.00 0.00 0.00 63 1018.1
20260906073004 57 122 1.7 2.6 0.00 0.00 0.00 60 1018.0
20260906071505 58 134 1.7 3.5 0.00 0.00 0.00 58 1018.1
20260906070018 59 136 0.9 2.6 0.00 0.00 0.00 55 1018.0
20260906064510 60 136 0.9 1.7 0.00 0.00 0.00 53 1018.0
20260906063019 61 290 0.9 5.2 0.00 0.00 0.00 51 1018.0
20260906061509 62 344 0.9 5.2 0.00 0.00 0.00 47 1017.9
20260906060006 68 270 1.7 13.0 0.00 0.00 0.00 38 1017.9
20260906054509 69 107 12.2 20.9 0.00 0.00 0.00 37 1017.6
20260906053014 69 114 11.3 20.0 0.00 0.00 0.00 36 1017.6
20260906051530 70 94 9.6 20.9 0.00 0.00 0.00 36 1017.7
20260906050004 70 107 10.4 18.2 0.00 0.00 0.00 35 1017.7
20260906044508 71 97 14.8 21.7 0.00 0.00 0.00 33 1017.7
20260906043013 71 107 8.7 25.2 0.00 0.00 0.00 34 1017.6
20260906041519 71 90 13.9 22.6 0.00 0.00 0.00 33 1017.6
20260906040038 71 97 13.0 26.1 0.00 0.00 0.00 33 1017.3
20260906034507 72 99 16.5 22.6 0.00 0.00 0.00 32 1017.3
20260906033011 71 84 14.8 24.3 0.00 0.00 0.00 33 1017.4
20260906031547 72 94 16.5 24.3 0.00 0.00 0.00 32 1017.1
20260906030024 72 90 14.8 23.5 0.00 0.00 0.00 32 1016.8
20260906024550 72 90 14.8 22.6 0.00 0.00 0.00 31 1016.6
20260906023010 72 88 16.5 29.5 0.00 0.00 0.00 32 1016.6
20260906021514 71 102 7.8 15.6 0.00 0.00 0.00 32 1016.6
20260906020017 71 42 5.2 13.0 0.00 0.00 0.00 33 1016.8
20260906014525 71 48 7.0 10.4 0.00 0.00 0.00 34 1016.8
20260906013005 72 319 0.0 9.6 0.00 0.00 0.00 42 1017.1
20260906011513 74 59 1.7 11.3 0.00 0.00 0.00 32 1016.9
20260906010045 75 337 2.6 10.4 0.00 0.00 0.00 32 1016.9
20260906004524 75 105 5.2 7.8 0.00 0.00 0.00 32 1016.9
20260906003030 75 194 2.6 6.1 0.00 0.00 0.00 39 1016.6
20260906001509 77 352 3.5 7.8 0.00 0.00 0.00 34 1016.8
20260906000019 76 350 1.7 9.6 0.00 0.00 0.00 37 1017.0
20260905234521 76 299 1.7 4.3 0.00 0.00 0.00 39 1017.0
20260905233027 75 284 1.7 5.2 0.00 0.00 0.00 38 1017.1
20260905231530 75 340 1.7 6.1 0.00 0.00 0.00 39 1017.2
20260905230028 75 317 1.7 7.0 0.00 0.00 0.00 42 1017.2
20260905224520 74 43 0.9 5.2 0.00 0.00 0.00 42 1017.4
20260905223002 74 293 1.7 6.1 0.00 0.00 0.00 42 1017.4
20260905221508 74 259 1.7 15.6 0.00 0.00 0.00 42 1017.6
20260905220012 73 281 4.3 7.8 0.00 0.00 0.00 45 1017.7
20260905214516 73 286 2.6 6.1 0.00 0.00 0.00 44 1017.9
20260905213004 72 267 2.6 6.1 0.00 0.00 0.00 45 1018.0
20260905211508 72 352 2.6 7.0 0.00 0.00 0.00 44 1018.2
20260905210010 71 242 3.5 7.0 0.00 0.00 0.00 46 1018.3
20260905204511 71 103 1.7 3.5 0.00 0.00 0.00 45 1018.4
20260905203019 70 316 1.7 7.0 0.00 0.00 0.00 49 1018.8
20260905201505 69 341 2.6 9.6 0.00 0.00 0.00 48 1018.9
20260905200009 69 304 1.7 6.1 0.00 0.00 0.00 48 1019.2
20260905194512 68 9 3.5 8.7 0.00 0.00 0.00 49 1019.2
20260905193017 67 334 2.6 6.1 0.00 0.00 0.00 52 1019.3
20260905191524 67 290 4.3 7.8 0.00 0.00 0.00 51 1019.3
20260905190006 66 310 4.3 7.0 0.00 0.00 0.00 52 1019.6
20260905184512 64 352 3.5 7.0 0.00 0.00 0.00 54 1019.6
20260905183027 64 287 3.5 8.7 0.00 0.00 0.00 55 1019.8
20260905181521 63 307 0.9 7.0 0.00 0.00 0.00 56 1020.0
20260905180027 62 317 2.6 6.1 0.00 0.00 0.00 58 1020.2
20260905174508 62 307 2.6 5.2 0.00 0.00 0.00 60 1020.4
20260905173027 61 221 3.5 7.0 0.00 0.00 0.00 60 1020.6
20260905171518 60 198 1.7 6.1 0.00 0.00 0.00 61 1020.6
20260905170026 59 230 2.6 6.1 0.00 0.00 0.00 62 1020.8
20260905164529 59 305 0.9 5.2 0.00 0.00 0.00 63 1020.8